Retour au catalogue

LEONAV-1

ActifRadio amateurSSO
NORAD 69937·PAYLOAD·🇫🇷 France

Lancé Jul 7, 2026 depuis Vandenberg Space Force Base

Loading…

Prochains Passages (prochaines 24 heures)

TLE

FraisSource: Space-Track

Époque: Sep 14, 2026, 04:20 UTC

1 69937U 26156BW  26257.18118114  .00001816  00000-0  18031-3 0  9993
2 69937  97.7435 156.5741 0009314 289.3760  70.6453 14.92939553 10277

Suivez LEONAV-1 en temps réel avec AllMySat

Download on the App Store